Volver al catálogo

COSMOS 970 DEB

ActivoLEO
NORAD 64986·DEBRIS·🇷🇺 Russia

Lanzado Dec 21, 1977 desde Baikonur Cosmodrome

Loading…

Próximos Pases (próximas 24 horas)

TLE

ActualizadoSource: Space-Track

Época: Sep 13, 2026, 09:47 UTC

1 64986U 77121CX  26256.40771100  .00000195  00000-0  30225-3 0  9992
2 64986  65.7752 246.6934 0099238   0.8200  73.1058 13.69881542628649

Sigue COSMOS 970 DEB en tiempo real con AllMySat

Download on the App Store